TimeAKST,TemperatureF,Dew PointF,Humidity,Sea Level PressureIn,VisibilityMPH,Wind Direction,Wind SpeedMPH,Gust SpeedMPH,PrecipitationIn,Events,Conditions,WindDirDegrees,DateUTC
12:54 AM,25.0,18.0,75,30.14,10.0,WNW,10.4,-,N/A,,Overcast,290,2013-02-13 09:54:00
1:54 AM,25.0,18.0,75,30.15,10.0,WNW,12.7,-,N/A,,Mostly Cloudy,290,2013-02-13 10:54:00
2:54 AM,24.1,19.0,81,30.17,10.0,WNW,10.4,-,N/A,,Scattered Clouds,290,2013-02-13 11:54:00
3:01 AM,24.8,17.6,74,30.16,10.0,WNW,12.7,-,N/A,,Mostly Cloudy,290,2013-02-13 12:01:00
3:20 AM,24.8,17.6,74,30.17,10.0,WNW,12.7,-,N/A,,Mostly Cloudy,290,2013-02-13 12:20:00
3:54 AM,24.1,18.0,77,30.18,10.0,WNW,10.4,-,N/A,,Mostly Cloudy,290,2013-02-13 12:54:00
4:54 AM,24.1,19.0,81,30.18,10.0,WNW,9.2,-,N/A,,Overcast,290,2013-02-13 13:54:00
5:40 AM,24.8,19.4,80,30.18,10.0,WNW,5.8,-,N/A,,Overcast,290,2013-02-13 14:40:00
5:54 AM,25.0,19.0,78,30.19,10.0,West,5.8,-,N/A,,Overcast,280,2013-02-13 14:54:00
6:54 AM,23.0,19.0,85,30.19,3.0,WNW,10.4,-,0.00,Snow,Light Snow,290,2013-02-13 15:54:00
7:54 AM,23.0,19.0,85,30.20,2.5,WNW,12.7,-,0.00,Snow,Light Snow,290,2013-02-13 16:54:00
8:54 AM,24.1,19.9,84,30.22,3.0,WNW,13.8,-,0.00,Snow,Light Snow,290,2013-02-13 17:54:00
9:54 AM,25.0,19.9,81,30.23,8.0,WNW,12.7,-,0.00,Snow,Light Snow,290,2013-02-13 18:54:00
10:54 AM,25.0,19.9,81,30.24,3.0,WNW,10.4,-,0.00,Snow,Light Snow,290,2013-02-13 19:54:00
11:05 AM,26.6,21.2,80,30.23,2.0,WNW,12.7,-,0.00,Snow,Light Snow,290,2013-02-13 20:05:00
11:23 AM,26.6,21.2,80,30.23,1.2,WNW,12.7,-,0.00,Snow,Light Snow,290,2013-02-13 20:23:00
11:49 AM,26.6,19.4,74,30.23,3.0,WNW,13.8,-,0.00,Snow,Light Snow,290,2013-02-13 20:49:00
11:50 AM,27.0,19.0,72,30.24,3.0,WNW,12.7,-,0.00,Snow,Light Snow,300,2013-02-13 20:50:00
12:40 PM,26.6,21.2,80,30.22,2.0,WNW,12.7,-,0.00,Snow,Light Snow,290,2013-02-13 21:40:00
12:47 PM,26.6,21.2,80,30.23,1.5,WNW,11.5,-,0.00,Snow,Light Snow,290,2013-02-13 21:47:00
12:54 PM,28.0,23.0,81,30.24,1.8,WNW,12.7,-,0.00,Snow,Light Snow,300,2013-02-13 21:54:00
1:03 PM,28.4,23.0,80,30.23,2.0,WNW,11.5,-,0.00,Snow,Light Snow,290,2013-02-13 22:03:00
1:30 PM,28.4,24.8,86,30.22,4.0,WNW,10.4,-,0.00,Snow,Light Snow,300,2013-02-13 22:30:00
1:54 PM,28.9,23.0,78,30.23,7.0,WNW,9.2,-,0.00,Snow,Light Snow,290,2013-02-13 22:54:00
2:54 PM,30.0,23.0,75,30.22,4.0,WNW,8.1,-,0.00,Snow,Light Snow,300,2013-02-13 23:54:00
3:09 PM,28.4,24.8,86,30.20,2.0,WNW,9.2,-,0.00,Snow,Light Snow,290,2013-02-14 00:09:00
3:27 PM,28.4,24.8,86,30.19,3.0,WNW,8.1,-,0.00,Snow,Light Snow,300,2013-02-14 00:27:00
3:37 PM,28.4,24.8,86,30.19,2.0,WNW,9.2,-,0.00,Snow,Light Snow,300,2013-02-14 00:37:00
3:54 PM,28.9,25.0,85,30.20,2.5,WNW,11.5,-,0.00,Snow,Light Snow,290,2013-02-14 00:54:00
4:05 PM,28.4,24.8,86,30.19,3.0,WNW,9.2,-,0.00,,Overcast,300,2013-02-14 01:05:00
4:17 PM,28.4,24.8,86,30.19,2.5,WNW,9.2,-,0.00,,Overcast,300,2013-02-14 01:17:00
4:37 PM,28.4,26.6,93,30.19,3.0,WNW,10.4,-,0.00,,Overcast,290,2013-02-14 01:37:00
4:54 PM,28.0,26.1,92,30.20,4.0,WNW,9.2,-,0.00,,Overcast,290,2013-02-14 01:54:00
5:54 PM,28.9,26.1,89,30.18,10.0,NW,11.5,-,0.00,,Overcast,310,2013-02-14 02:54:00
6:35 PM,28.4,26.6,93,30.16,2.5,WNW,11.5,-,0.00,Snow,Light Snow,290,2013-02-14 03:35:00
6:44 PM,28.4,26.6,93,30.16,3.0,WNW,12.7,-,0.00,Snow,Light Snow,300,2013-02-14 03:44:00
6:54 PM,28.9,26.1,89,30.16,2.5,NW,10.4,-,0.00,Snow,Light Snow,310,2013-02-14 03:54:00
7:12 PM,28.4,26.6,93,30.14,3.0,WNW,8.1,-,0.00,Snow,Light Snow,300,2013-02-14 04:12:00
7:54 PM,28.0,26.1,92,30.16,2.0,WNW,8.1,-,0.00,Snow,Light Snow,300,2013-02-14 04:54:00
8:02 PM,28.4,26.6,93,30.16,1.5,WNW,8.1,-,0.00,Snow,Light Snow,300,2013-02-14 05:02:00
8:15 PM,28.4,26.6,93,30.15,3.0,WNW,8.1,-,0.00,Snow,Light Snow,290,2013-02-14 05:15:00
8:54 PM,28.0,27.0,96,30.14,2.5,West,5.8,-,0.01,Snow,Light Snow,280,2013-02-14 05:54:00
9:22 PM,28.4,26.6,93,30.13,4.0,Calm,Calm,-,0.00,Snow,Light Snow,0,2013-02-14 06:22:00
9:54 PM,28.0,27.0,96,30.14,7.0,NW,5.8,-,0.00,Snow,Light Snow,310,2013-02-14 06:54:00
10:44 PM,33.8,32.0,93,30.11,4.0,ENE,9.2,17.3,0.00,Snow,Light Snow,60,2013-02-14 07:44:00
10:54 PM,34.0,32.0,92,30.12,4.0,East,8.1,-,0.00,Snow,Light Snow,90,2013-02-14 07:54:00
11:07 PM,33.8,32.0,93,30.10,5.0,ENE,10.4,16.1,0.00,Snow,Light Snow,70,2013-02-14 08:07:00
11:54 PM,35.1,32.0,89,30.10,10.0,ENE,9.2,21.9,0.01,,Overcast,70,2013-02-14 08:54:00